DateTimeUTC,F1_A11,F1_S11,BsB_S11,BsG_S11,BsR_S11,BbsB_S11,BbsG_S11,BbsR_S11,BaB_A11,BaG_A11,BaR_A11,Tu_S11,T_S11,Uu_S11,U_S11,P_S11,T1_A11
2021-02-11T17:00:00Z,00000200,21000000,,,,,,,-000.34,0000.03,-000.42,15.4,23.1,,00.0,0650.3,30.9
2021-02-11T17:01:00Z,00000200,21000000,,,,,,,0000.03,0000.06,0000.08,15.3,23.1,,00.0,0650.3,30.9
2021-02-11T17:02:00Z,00000200,21000000,,,,,,,0000.07,-000.57,-000.22,15.3,23.1,,00.0,0650.3,30.9
2021-02-11T17:03:00Z,00000200,61000000,,,,,,,0000.05,0000.18,0000.19,15.3,23.1,,00.0,0650.3,30.8
2021-02-11T17:04:00Z,00000200,41000000,0000.67,0000.42,0000.42,0000.20,-000.08,0000.23,-000.11,0000.07,-000.09,15.3,22.8,,00.0,0651.3,30.8
2021-02-11T17:05:00Z,00000200,01000000,0000.33,0000.03,0000.16,0000.23,0000.13,0000.04,0000.59,-000.06,-000.08,15.3,22.7,,00.0,0651.3,30.8
2021-02-11T17:06:00Z,00000200,01000000,0000.80,0000.06,0000.23,0000.51,0000.04,0000.12,0000.06,0000.21,0000.33,15.2,22.7,,00.0,0651.3,30.8
2021-02-11T17:07:00Z,00000200,01000000,0000.27,0000.33,0000.04,-000.10,0000.03,0000.07,0000.50,0000.61,0000.60,15.3,22.7,,00.0,0651.2,30.8
2021-02-11T17:08:00Z,00000200,01000000,0000.30,0000.19,-000.03,0000.31,-000.01,0000.18,0000.27,0000.17,-000.03,15.3,22.7,,00.0,0651.2,30.8
2021-02-11T17:09:00Z,00000200,01000000,0000.18,0000.22,0000.21,0000.88,-000.15,0000.28,-000.01,0000.38,0000.10,15.4,22.7,,00.0,0651.2,30.8
2021-02-11T17:10:00Z,00000200,01000000,0000.09,0000.32,0000.25,0000.07,-000.03,-000.00,0000.10,-000.36,0000.14,15.4,22.7,,00.0,0651.2,30.8
2021-02-11T17:11:00Z,00000200,01000000,0000.92,0000.26,0000.36,0000.55,-000.38,0000.14,0000.03,0000.28,-000.07,15.5,22.7,,00.0,0651.3,30.9
2021-02-11T17:12:00Z,00000200,01000000,0000.56,0000.38,0000.32,-000.28,-000.08,-000.05,0000.17,0000.21,0000.36,15.5,22.8,,00.0,0651.3,30.9
2021-02-11T17:13:00Z,00000200,01000000,0000.67,0000.13,0000.44,0000.32,0000.17,0000.32,-000.10,0000.06,0000.26,15.6,22.8,,00.0,0651.3,30.9
2021-02-11T17:14:00Z,00000200,01000000,0000.78,0000.23,0000.00,0000.16,-000.15,0000.27,0000.40,0000.09,-000.43,15.7,22.8,,00.0,0651.3,30.9
2021-02-11T17:15:00Z,00000200,01000000,0001.09,0000.31,0000.08,0000.52,-000.04,0000.08,-000.11,-000.18,-000.01,15.7,22.8,,00.0,0651.3,30.9
2021-02-11T17:16:00Z,00000200,01000000,-000.17,0000.24,0000.07,-000.26,-000.14,0000.11,-000.24,0000.02,0000.13,15.7,22.8,,00.0,0651.3,30.9
2021-02-11T17:17:00Z,00000200,01000000,0000.56,0000.17,-000.08,0000.29,0000.15,0000.16,-000.15,0000.15,-000.27,15.6,22.8,,00.0,0651.3,30.9
2021-02-11T17:18:00Z,00000200,01000000,0000.41,0000.18,0000.46,0000.12,0000.23,0000.18,-000.23,0000.05,0000.11,15.6,22.8,,00.0,0651.3,30.9
2021-02-11T17:19:00Z,00000200,01000000,-000.15,0000.34,0000.35,0000.09,-000.12,0000.31,0000.08,0000.01,-000.15,15.5,22.7,,00.0,0651.3,30.9
2021-02-11T17:20:00Z,00000200,01000000,0000.25,-000.01,0000.25,0000.34,-000.18,0000.08,0000.42,-000.03,-000.18,15.5,22.7,,00.0,0651.3,30.9
2021-02-11T17:21:00Z,00000200,01000000,-000.28,0000.34,0000.66,0000.02,0000.24,0000.19,0000.43,0000.32,0000.49,15.4,22.7,,00.0,0651.4,30.9
2021-02-11T17:22:00Z,00000200,01000000,0000.15,-000.09,0000.31,0000.18,-000.10,-000.02,0000.06,-000.11,0000.22,15.5,22.7,,00.0,0651.4,30.9
2021-02-11T17:23:00Z,00000200,01000000,0000.59,0000.11,0000.06,0000.08,0000.15,0000.07,0000.29,0000.34,0000.14,15.5,22.7,,00.0,0651.4,30.9
2021-02-11T17:24:00Z,00000200,01000000,0000.05,-000.06,0000.16,0000.14,0000.11,0000.19,0000.30,0000.05,0000.42,15.5,22.7,,00.0,0651.4,30.9
2021-02-11T17:25:00Z,00000200,01000000,0001.03,0000.05,0000.29,0000.94,-000.05,0000.15,-000.11,0000.24,-000.00,15.6,22.7,,00.0,0651.4,30.9
2021-02-11T17:26:00Z,00000200,01000000,0000.48,0000.09,0000.44,-000.03,0000.26,-000.11,0000.39,0000.03,0000.17,15.7,22.8,,00.0,0651.4,30.9
2021-02-11T17:27:00Z,00000200,01000000,0000.77,0000.01,0000.00,0000.02,-000.04,0000.01,0000.34,0000.57,-000.14,15.7,22.8,,00.0,0651.4,30.9
2021-02-11T17:28:00Z,00000200,01000000,0000.63,0000.04,0000.05,0000.23,-000.18,0000.11,0000.08,0000.10,0000.56,15.8,22.8,,00.0,0651.4,30.9
2021-02-11T17:29:00Z,00000200,01000000,0000.59,-000.06,0000.06,0000.63,-000.24,0000.19,0000.20,0000.17,0000.10,15.8,22.8,,00.0,0651.4,30.9
2021-02-11T17:30:00Z,00000200,01000000,0000.30,0000.03,0000.24,0000.12,0000.14,-000.03,0000.40,0000.14,-000.01,15.8,22.9,,00.0,0651.4,30.9
2021-02-11T17:31:00Z,00000200,01000000,0001.12,0000.09,0000.19,0000.14,-000.05,0000.15,-000.21,0000.13,0000.32,15.9,22.9,,00.0,0651.4,30.9
2021-02-11T17:32:00Z,00000200,01000000,0000.75,0000.13,0000.31,-000.17,-000.13,0000.10,0000.35,0000.39,-000.07,15.9,22.9,,00.0,0651.4,30.9
2021-02-11T17:33:00Z,00000200,01000000,-000.02,0000.24,0000.55,0000.09,-000.21,0000.23,0000.27,0000.01,0000.61,15.9,22.9,,00.0,0651.4,30.9
2021-02-11T17:34:00Z,00000200,01000000,0000.57,0000.38,0000.25,0000.19,0000.10,0000.13,-000.12,0000.25,-000.37,15.8,22.9,,00.0,0651.4,30.9
2021-02-11T17:35:00Z,00000200,01000000,-000.04,0000.33,0000.45,-000.23,-000.17,0000.16,0000.41,0000.09,-000.04,15.8,22.8,,00.0,0651.5,30.9
2021-02-11T17:36:00Z,00000200,01000000,-000.14,-000.04,0000.17,0000.12,0000.21,0000.13,-000.08,-000.18,0000.02,15.7,22.8,,00.0,0651.5,30.9
2021-02-11T17:37:00Z,00000200,01000000,0001.05,-000.08,0000.18,0000.43,0000.18,-000.00,0000.45,0000.61,0000.27,15.8,22.8,,00.0,0651.5,30.9
2021-02-11T17:38:00Z,00000200,01000000,0000.67,-000.10,0000.27,0000.28,-000.08,0000.25,0000.26,-000.17,0000.15,15.8,22.8,,00.0,0651.4,30.9
2021-02-11T17:39:00Z,00000200,01000000,-000.05,0000.21,0000.10,0000.37,-000.05,0000.37,-000.12,0000.36,0000.09,15.8,22.8,,00.0,0651.5,30.9
2021-02-11T17:40:00Z,00000200,01000000,0000.67,0000.35,0000.35,0000.11,-000.13,0000.07,-000.07,-000.12,0000.23,15.9,22.9,,00.0,0651.5,30.9
2021-02-11T17:41:00Z,00000200,01000000,0000.80,0000.19,0000.39,0000.36,0000.01,-000.09,0000.26,0000.05,0000.22,15.8,22.8,,00.0,0651.5,30.9
2021-02-11T17:42:00Z,00000200,01000000,0000.70,0000.28,0000.17,0000.22,0000.04,-000.13,-000.08,0000.34,-000.35,15.8,22.9,,00.0,0651.5,30.9
2021-02-11T17:43:00Z,00000200,01000000,0000.52,0000.02,0000.24,0000.42,0000.29,0000.07,0000.35,-000.15,0000.22,15.7,22.8,,00.0,0651.4,30.9
2021-02-11T17:44:00Z,00000200,01000000,0000.31,0000.08,0000.23,-000.46,0000.11,-000.17,0000.15,0000.28,0000.24,15.7,22.8,,00.0,0651.4,30.9
2021-02-11T17:45:00Z,00000200,01000000,0001.26,0000.09,0000.45,-000.11,-000.08,-000.07,0000.42,0000.49,0000.24,15.6,22.7,,00.0,0651.4,30.9
2021-02-11T17:46:00Z,00000200,01000000,0000.11,0000.07,0000.62,0000.16,-000.10,0000.05,0000.18,-000.24,0000.02,15.5,22.7,,00.0,0651.4,30.8
2021-02-11T17:47:00Z,00000200,01000000,-000.26,-000.06,0000.50,0000.25,-000.12,0000.14,0000.09,0000.95,0000.12,15.4,22.7,,00.0,0651.4,30.8
2021-02-11T17:48:00Z,00000200,01000000,0000.53,-000.04,0000.28,0000.19,-000.18,0000.17,0000.57,-000.45,0000.55,15.4,22.6,,00.0,0651.3,30.8
2021-02-11T17:49:00Z,00000200,01000000,0000.14,0000.34,-000.03,0000.49,0000.07,0000.05,-000.09,0000.28,-000.01,15.3,22.6,,00.0,0651.3,30.8
2021-02-11T17:50:00Z,00000200,01000000,0000.55,0000.35,0000.40,-000.15,0000.31,0000.23,0000.15,0000.30,-000.22,15.3,22.5,,00.0,0651.4,30.8
2021-02-11T17:51:00Z,00000200,01000000,0000.62,-000.29,0000.17,-000.05,-000.11,0000.19,0000.36,0000.11,0000.18,15.2,22.5,,00.0,0651.4,30.8
2021-02-11T17:52:00Z,00000200,01000000,-000.51,0000.29,0000.08,-000.58,-000.07,0000.15,0000.49,0000.06,0000.49,15.3,22.5,,00.0,0651.3,30.8
2021-02-11T17:53:00Z,00000200,01000000,0000.36,-000.08,0000.26,0000.57,-000.01,-000.07,-000.00,0000.26,-000.01,15.3,22.5,,00.0,0651.3,30.8
2021-02-11T17:54:00Z,00000200,01000000,0000.98,0000.26,0000.44,0000.34,0000.06,0000.43,0000.03,0000.43,0000.25,15.4,22.5,,00.0,0651.4,30.8
2021-02-11T17:55:00Z,00000200,01000000,0000.43,-000.02,0000.13,-000.11,0000.05,0000.39,-000.20,-000.17,0000.03,15.4,22.6,,00.0,0651.4,30.8
2021-02-11T17:56:00Z,00000200,01000000,0000.52,0000.37,0000.38,0000.60,-000.01,-000.01,0000.27,-000.07,-000.08,15.5,22.6,,00.0,0651.4,30.8
2021-02-11T17:57:00Z,00000200,41000000,,,,,,,-000.37,-000.09,0000.02,15.5,22.6,,00.0,0651.5,30.8
2021-02-11T17:58:00Z,00000200,61000000,,,,,,,-000.00,-000.03,-000.40,15.1,22.7,,00.0,0650.5,30.8
2021-02-11T17:59:00Z,00000200,21000000,,,,,,,-000.23,-000.42,-000.24,15.1,22.8,,00.0,0650.5,30.8
